カタログに戻る

FENGYUN 1C DEB

運用中SSO
NORAD 31430·DEBRIS·🇨🇳 China

打ち上げ May 10, 1999 から Taiyuan Satellite Launch Center

Loading…

次のパス (今後24時間)

TLE

最新Source: Space-Track

元期: Sep 14, 2026, 10:55 UTC

1 31430U 99025BTS 26257.45550976  .00001394  00000-0  59260-3 0  9991
2 31430  98.7214 324.5766 0025336 319.0228  53.3615 14.26704943   486

AllMySatでFENGYUN 1C DEBをリアルタイム追跡

Download on the App Store